FW3894 Weather Reports


time (UTC)temp
C
wind
direction
speed
KPH
gust
KPH
rain 1hr
cm
rain 24hr
cm
rain mn
cm
humidity
%
barometer
mb
20260504021530 11 259 6.4 17.7 0.00 0.00 0.00 51 1012.1
20260504021009 11 260 8.0 17.7 0.00 0.00 0.00 49 1012.2
20260504020511 12 313 6.4 19.3 0.00 0.00 0.00 48 1012.1
20260504020030 12 248 9.7 19.3 0.00 0.00 0.00 48 1012.2
20260504015511 12 277 8.0 16.1 0.00 0.00 0.00 48 1012.2
20260504015013 12 256 8.0 16.1 0.00 0.00 0.00 48 1012.1
20260504014530 12 261 8.0 16.1 0.00 0.00 0.00 48 1012.1
20260504014011 12 304 6.4 16.1 0.00 0.00 0.00 48 1012.0
20260504013511 12 254 6.4 14.5 0.00 0.00 0.00 49 1012.0
20260504013040 12 273 6.4 14.5 0.00 0.00 0.00 51 1011.9
20260504012516 12 225 4.8 14.5 0.00 0.00 0.00 52 1011.8
20260504012007 12 281 4.8 14.5 0.00 0.00 0.00 51 1011.8
20260504011530 12 290 6.4 14.5 0.00 0.00 0.00 51 1011.9
20260504011012 12 269 6.4 12.9 0.00 0.00 0.00 52 1011.8
20260504010516 12 273 4.8 12.9 0.00 0.00 0.00 51 1011.6
20260504010030 12 261 4.8 12.9 0.00 0.00 0.00 50 1011.5
20260504005509 12 274 3.2 11.3 0.00 0.00 0.00 51 1011.5
20260504005011 12 286 4.8 12.9 0.00 0.00 0.00 49 1011.4
20260504004528 12 271 6.4 12.9 0.00 0.00 0.00 49 1011.4
20260504004008 12 303 4.8 12.9 0.00 0.00 0.00 49 1011.3
20260504003515 12 253 4.8 11.3 0.00 0.00 0.00 47 1011.4
20260504003033 13 252 4.8 12.9 0.00 0.00 0.00 47 1011.2
20260504002509 13 283 6.4 12.9 0.00 0.00 0.00 43 1011.1
20260504002013 13 281 4.8 11.3 0.00 0.00 0.00 45 1011.1
20260504001529 13 281 3.2 9.7 0.00 0.00 0.00 45 1011.0
20260504001011 13 278 3.2 9.7 0.00 0.00 0.00 45 1011.0
20260504000513 13 272 3.2 9.7 0.00 0.00 0.00 45 1011.0
20260504000031 13 257 3.2 11.3 0.00 0.00 0.00 44 1010.8
20260503235510 13 269 4.8 12.9 0.00 0.00 0.00 42 1010.8
20260503235010 13 294 4.8 12.9 0.00 0.00 0.00 40 1010.9
20260503234531 13 281 3.2 19.3 0.00 0.00 0.00 41 1010.7
20260503234007 14 325 3.2 19.3 0.00 0.00 0.00 41 1010.7
20260503233511 14 321 9.7 19.3 0.00 0.00 0.00 43 1010.6
20260503233035 14 319 8.0 19.3 0.00 0.00 0.00 40 1010.6
20260503232509 14 277 6.4 19.3 0.00 0.00 0.00 39 1010.6
20260503232010 14 313 8.0 20.9 0.00 0.00 0.00 39 1010.7
20260503231528 14 303 8.0 24.1 0.00 0.00 0.00 38 1010.6
20260503231011 14 240 12.9 24.1 0.00 0.00 0.00 37 1010.6
20260503230510 14 333 12.9 24.1 0.00 0.00 0.00 39 1010.5
20260503230029 15 308 12.9 24.1 0.00 0.00 0.00 43 1010.4
20260503225513 15 327 14.5 29.0 0.00 0.00 0.00 36 1010.3
20260503225011 15 304 12.9 33.8 0.00 0.00 0.00 36 1010.3
20260503224531 15 303 17.7 33.8 0.00 0.00 0.00 41 1010.3
20260503224016 15 314 6.4 22.5 0.00 0.00 0.00 38 1010.3
20260503223512 15 279 9.7 22.5 0.00 0.00 0.00 38 1010.2
20260503223032 15 281 6.4 22.5 0.00 0.00 0.00 35 1010.2
20260503222509 15 319 11.3 22.5 0.00 0.00 0.00 38 1010.2
20260503222011 15 262 9.7 22.5 0.00 0.00 0.00 35 1010.1
20260503221531 15 348 6.4 17.7 0.00 0.00 0.00 36 1010.2
20260503221010 15 324 8.0 25.7 0.00 0.00 0.00 39 1010.2
20260503220510 15 352 4.8 29.0 0.00 0.00 0.00 37 1010.2
20260503220028 15 306 19.3 29.0 0.00 0.00 0.00 39 1010.2
20260503215511 15 306 9.7 29.0 0.00 0.00 0.00 39 1010.3
20260503215016 15 337 12.9 38.6 0.00 0.00 0.00 39 1010.1
20260503214531 15 325 14.5 38.6 0.00 0.00 0.00 42 1010.1
20260503214010 15 315 22.5 38.6 0.00 0.00 0.00 40 1010.0
20260503213515 15 300 11.3 32.2 0.00 0.00 0.00 38 1010.0
20260503213039 15 296 8.0 32.2 0.00 0.00 0.00 38 1010.0
20260503212510 15 328 16.1 32.2 0.00 0.00 0.00 39 1010.1
20260503212012 15 308 8.0 27.4 0.00 0.00 0.00 41 1010.0
20260503211535 15 231 11.3 35.4 0.00 0.00 0.00 42 1009.9
20260503211010 14 321 19.3 35.4 0.00 0.00 0.00 43 1010.0
20260503210511 14 294 20.9 35.4 0.00 0.00 0.00 41 1010.0
20260503210034 15 232 8.0 37.0 0.00 0.00 0.00 37 1010.0
20260503205508 15 270 16.1 37.0 0.00 0.00 0.00 40 1010.0
20260503205015 15 269 8.0 33.8 0.00 0.00 0.00 39 1009.8
20260503204533 14 81 8.0 33.8 0.00 0.00 0.00 38 1009.9
20260503204013 15 305 12.9 33.8 0.00 0.00 0.00 39 1009.9
20260503203510 15 280 4.8 30.6 0.00 0.00 0.00 39 1009.9
20260503203030 14 303 19.3 38.6 0.00 0.00 0.00 42 1009.7
20260503202552 14 352 11.3 38.6 0.00 0.00 0.00 40 1009.9
20260503202013 14 306 22.5 38.6 0.00 0.00 0.00 45 1009.7
20260503201528 14 332 12.9 40.2 0.00 0.00 0.00 43 1009.7
20260503201011 13 286 19.3 40.2 0.00 0.00 0.00 42 1009.9
20260503200513 14 278 20.9 32.2 0.00 0.00 0.00 42 1010.1
20260503200032 14 306 6.4 32.2 0.00 0.00 0.00 41 1010.1
20260503195509 13 302 17.7 33.8 0.00 0.00 0.00 43 1010.2
20260503195015 13 0 17.7 45.1 0.00 0.00 0.00 47 1010.2
20260503194529 13 314 24.1 45.1 0.00 0.00 0.00 44 1010.0
20260503194010 13 312 16.1 30.6 0.00 0.00 0.00 45 1010.2
20260503193511 13 301 9.7 32.2 0.00 0.00 0.00 45 1010.3
20260503193032 13 344 19.3 32.2 0.00 0.00 0.00 45 1010.3
20260503192512 13 315 4.8 24.1 0.00 0.00 0.00 44 1010.4
20260503192008 13 304 6.4 29.0 0.00 0.00 0.00 44 1010.4
20260503191529 13 305 12.9 29.0 0.00 0.00 0.00 43 1010.3
20260503191008 13 288 6.4 37.0 0.00 0.00 0.00 46 1010.6
20260503190511 13 318 19.3 41.8 0.00 0.00 0.00 45 1010.5
20260503190042 12 348 25.7 41.8 0.00 0.00 0.00 47 1010.6
20260503185509 13 305 12.9 33.8 0.00 0.00 0.00 47 1010.6
20260503185008 13 5 9.7 33.8 0.00 0.00 0.00 44 1010.8
20260503184528 12 303 11.3 33.8 0.00 0.00 0.00 45 1010.6
20260503184012 12 284 14.5 32.2 0.00 0.00 0.00 44 1010.7
20260503183516 12 307 16.1 30.6 0.00 0.00 0.00 43 1010.6
20260503183030 12 307 12.9 30.6 0.00 0.00 0.00 47 1010.7
20260503182508 12 295 9.7 27.4 0.00 0.00 0.00 44 1010.8
20260503182012 12 22 9.7 37.0 0.00 0.00 0.00 46 1010.7
20260503181528 12 311 16.1 37.0 0.00 0.00 0.00 46 1010.8
20260503181009 12 271 11.3 35.4 0.00 0.00 0.00 46 1010.8
20260503180511 12 267 16.1 37.0 0.00 0.00 0.00 47 1010.9
20260503180038 12 317 11.3 37.0 0.00 0.00 0.00 48 1010.7
20260503175508 12 168 6.4 30.6 0.00 0.00 0.00 43 1010.8
20260503175011 12 277 11.3 30.6 0.00 0.00 0.00 49 1010.9
20260503174529 11 272 14.5 29.0 0.00 0.00 0.00 47 1010.8
20260503174008 12 209 9.7 33.8 0.00 0.00 0.00 45 1010.9
20260503173508 12 289 11.3 33.8 0.00 0.00 0.00 46 1011.0
20260503173031 12 285 11.3 33.8 0.00 0.00 0.00 46 1010.9
20260503172508 12 257 8.0 29.0 0.00 0.00 0.00 45 1010.8
20260503172013 12 328 9.7 19.3 0.00 0.00 0.00 44 1010.8
20260503171538 12 337 9.7 19.3 0.00 0.00 0.00 47 1010.9
20260503171008 11 308 12.9 37.0 0.00 0.00 0.00 48 1010.9
20260503170508 11 303 9.7 37.0 0.00 0.00 0.00 51 1011.1
20260503151012 11 320 4.8 25.7 0.00 0.00 0.00 51 1011.3
20260503150509 10 302 6.4 25.7 0.00 0.00 0.00 54 1011.4
20260503131009 9 342 4.8 22.5 0.00 0.00 0.00 60 1011.2
20260503130512 9 315 4.8 22.5 0.00 0.00 0.00 62 1011.3
20260503110510 8 0 3.2 16.1 0.00 0.00 0.00 60 1010.3
20260503090512 8 331 3.2 11.3 0.00 0.00 0.00 57 1008.7
20260503081538 8 334 1.6 6.4 0.00 0.00 0.00 57 1008.6
20260503081008 8 323 1.6 8.0 0.00 0.00 0.00 56 1008.6
20260503080512 9 308 0.0 8.0 0.00 0.00 0.00 56 1008.5
20260503072510 10 0 0.0 9.7 0.00 0.00 0.00 54 1008.6
20260503072013 10 0 0.0 9.7 0.00 0.00 0.00 55 1008.5
20260503071530 10 306 1.6 11.3 0.00 0.00 0.00 55 1008.7
20260503071010 10 355 1.6 11.3 0.00 0.00 0.00 55 1008.5
20260503070511 10 289 1.6 8.0 0.00 0.00 0.00 54 1008.5
20260503055012 11 338 1.6 8.0 0.00 0.00 0.00 56 1008.7
20260503054538 11 348 1.6 6.4 0.00 0.00 0.00 56 1008.9
20260503054010 11 325 1.6 8.0 0.00 0.00 0.00 56 1009.0
20260503053511 11 325 1.6 8.0 0.00 0.00 0.00 57 1009.1
20260503053030 10 322 3.2 8.0 0.00 0.00 0.00 55 1008.7
20260503052509 10 348 1.6 8.0 0.00 0.00 0.00 56 1008.7
20260503052013 11 331 1.6 4.8 0.00 0.00 0.00 56 1008.7
20260503051529 10 317 1.6 8.0 0.00 0.00 0.00 58 1008.9
20260503051009 10 295 3.2 8.0 0.00 0.00 0.00 58 1008.9
20260503050509 10 288 1.6 8.0 0.00 0.00 0.00 59 1008.8
20260503050028 10 329 1.6 6.4 0.00 0.00 0.00 59 1008.9
20260503045511 10 340 1.6 6.4 0.00 0.00 0.00 60 1009.1
20260503045013 10 0 1.6 6.4 0.00 0.00 0.00 63 1009.0
20260503044531 10 327 0.0 6.4 0.00 0.00 0.00 64 1009.3
20260503044011 10 333 1.6 6.4 0.00 0.00 0.00 65 1009.4
20260503043510 10 287 1.6 6.4 0.00 0.00 0.00 64 1009.5
20260503043028 10 270 1.6 6.4 0.00 0.00 0.00 66 1009.7
20260503042510 10 313 3.2 6.4 0.00 0.00 0.00 66 1009.7
20260503042016 10 303 1.6 6.4 0.00 0.00 0.00 67 1009.6
20260503041528 10 317 1.6 4.8 0.00 0.00 0.00 67 1009.7
20260503041011 10 320 0.0 6.4 0.00 0.00 0.00 68 1009.6
20260503040514 11 305 1.6 6.4 0.00 0.00 0.00 68 1009.6
20260503040028 11 313 1.6 6.4 0.00 0.00 0.00 69 1009.5
20260503035509 11 336 0.0 4.8 0.00 0.00 0.00 69 1009.4
20260503035011 11 313 0.0 4.8 0.00 0.00 0.00 68 1009.5
20260503034528 11 0 1.6 4.8 0.00 0.00 0.00 69 1009.4
20260503034010 11 325 0.0 4.8 0.00 0.00 0.00 70 1009.5
20260503033510 11 0 0.0 4.8 0.00 0.00 0.00 69 1009.7
20260503033041 11 313 1.6 4.8 0.00 0.00 0.00 69 1009.5
20260503032511 11 0 0.0 4.8 0.00 0.00 0.00 70 1009.5
20260503032014 11 327 0.0 4.8 0.00 0.00 0.00 71 1009.7
20260503031530 11 311 1.6 4.8 0.00 0.00 0.00 71 1009.7
20260503031008 11 313 0.0 3.2 0.00 0.00 0.00 73 1009.4
20260503030507 11 307 0.0 3.2 0.00 0.00 0.00 73 1009.5
20260503030034 11 315 1.6 4.8 0.00 0.00 0.00 75 1009.7
20260503025507 11 323 0.0 4.8 0.00 0.00 0.00 77 1009.4
20260503025007 11 0 0.0 4.8 0.00 0.00 0.00 78 1009.3
20260503024532 10 326 1.6 4.8 0.00 0.00 0.00 79 1009.4
20260503024011 10 0 0.0 3.2 0.00 0.00 0.00 81 1009.3
20260503023511 10 301 0.0 6.4 0.00 0.00 0.00 83 1009.3
20260503023028 10 0 0.0 6.4 0.00 0.00 0.00 83 1009.5
20260503022509 10 313 1.6 6.4 0.00 0.00 0.00 83 1009.6
20260503022011 10 289 1.6 6.4 0.00 0.00 0.00 83 1009.7